Regional Weather Roundup
Issued by NWS Cleveland, OH

Home | Current Version | Previous Version | Text Only | Print | Product List | Glossary Off
Versions: 1 2 3 4 5 6 7 8 9 10 11 12 13 14 15 16 17 18 19 20 21 22 23 24 25 26 27 28 29 30 31 32 33 34 35 36 37 38 39 40 41 42 43 44 45 46 47 48 49 50

000
ASUS41 KCLE 171310
RWRCLE
OHIO REGIONAL WEATHER ROUNDUP
NATIONAL WEATHER SERVICE CLEVELAND, OH
800 AM EST SAT FEB 17 2018

NOTE: "FAIR" INDICATES FEW OR NO CLOUDS BELOW 12,000 FEET WITH NO
SIGNIFICANT WEATHER AND/OR OBSTRUCTIONS TO VISIBILITY.

OHZ001>008-015>018-024>027-034-035-043-044-171400-
   NORTHWEST OHIO

CITY           SKY/WX    TMP DP  RH WIND       PRES   REMARKS
DEFIANCE       FAIR      27  21  78 S5        30.21R WCI  22
FINDLAY        CLOUDY    28  21  75 SE5       30.20S WCI  23
TOLEDO EXPRESS FAIR      25  23  92 S5        30.21R WCI  19
TOLEDO EXEC    CLOUDY    28  22  78 S6        30.23S WCI  22
LIMA           MOCLDY    27  24  89 SE5       30.19F WCI  22
$$

OHZ009>014-019>023-028>033-038-089-171400-
   NORTHEAST OHIO

CITY           SKY/WX    TMP DP  RH WIND       PRES   REMARKS
CLE-HOPKINS    CLOUDY    31  22  69 S7        30.25S WCI  24
CLE-LAKEFRONT  CLOUDY    31  19  61 S8        30.23F WCI  23
CUY CO. ARPT   CLOUDY    30  19  64 SE8       30.24F WCI  23
LORAIN-ELYRIA  CLOUDY    28  19  69 VRB3      30.23S
ASHTABULA      CLOUDY    27  20  75 S7        30.25F WCI  19
AKRON-CANTON   MOCLDY    28  18  66 S12       30.21F WCI  18
WOOSTER        MOCLDY    27  20  75 S8        30.21F WCI  19
MANSFIELD      CLOUDY    29  23  78 S7        30.20S WCI  22
YOUNGSTOWN     CLOUDY    27  17  66 S9        30.23F WCI  18
$$

OHZ042-051>053-060>062-070>072-077>081-171400-
  SOUTHWEST OHIO

CITY           SKY/WX    TMP DP  RH WIND       PRES   REMARKS
CINC-COVINGTON CLOUDY    32  28  85 E8        30.17F WCI  25
CINC-LUNKEN    FAIR      33  27  78 CALM      30.21F
HAMILTON       FAIR      34  28  79 CALM      30.19F
DAYTON         CLOUDY    30  27  88 CALM      30.19F
WRIGHT-PAT AFB CLOUDY    31  29  89 CALM      30.19F
DAYTON GENERAL FAIR      32  25  75 MISG      30.17F
WILMINGTON     MOCLDY    31  28  89 E6        30.16F WCI  25
$$

OHZ036-037-039>041-045>050-054>059-063>069-073>076-082>088-171400-
  CENTRAL AND SOUTHEAST OHIO

CITY           SKY/WX    TMP DP  RH WIND       PRES   REMARKS
COLUMBUS       CLOUDY    31  25  78 E6        30.19F WCI  25
OSU AIRPORT    FAIR      30  25  81 SE8       30.19F WCI  22
BOLTON FIELD   MOCLDY    30  27  86 E5        30.20F WCI  25
RICKENBACK AFB CLOUDY    30  27  89 E6        30.20F WCI  24
NEWARK         CLOUDY    30  23  75 CALM      30.21F
MARION         CLOUDY    28  23  81 CALM      30.20F
LANCASTER      CLOUDY    30  25  81 CALM      30.21F
ZANESVILLE     CLOUDY    30  22  72 E3        30.22F
NEW PHILLY     NOT AVBL
$$




USA.gov is the U.S. government's official web portal to all federal, state and local government web resources and services.